Overview Statistics Trail Chart Weather Telemetry Raw packets
 

This is the latest recevied weather packets stored in our database for station/object NO9B. If no packets are shown the sender has not sent any weather packets the latest 10 day(s).

<< 79 80 81 82 83 84 85 >>
Time Temp. Humidity Pressure Rain* Wind** Luminosity Snow
1788123709 24.44° C 82% 1014.7 hPa 0 mm - 39 W/m² -
1788123406 25° C 82% 1014.7 hPa 0 mm - 48 W/m² -
1788123102 25° C 82% 1015 hPa 0 mm - 58 W/m² -
1788122801 25° C 81% 1014.8 hPa 0 mm - 46 W/m² -
1788122500 25° C 80% 1014.8 hPa 0 mm - 40 W/m² -
1788122197 25° C 81% 1014.8 hPa 0 mm - 44 W/m² -
1788121896 25° C 80% 1014.8 hPa 0 mm - 37 W/m² -
1788121596 25° C 80% 1014.8 hPa 0 mm - 29 W/m² -
1788121292 25° C 79% 1014.7 hPa 0 mm - 27 W/m² -
1788120992 25° C 78% 1014.9 hPa 0 mm - 29 W/m² -
1788120687 25.56° C 77% 1015 hPa 0 mm - 32 W/m² -
1788120382 25.56° C 77% 1014.8 hPa 0 mm - 40 W/m² -
1788120082 25.56° C 76% 1015 hPa 0 mm - 52 W/m² -
1788119777 26.11° C 76% 1015.1 hPa 0 mm - 73 W/m² -
1788119475 26.11° C 75% 1015.1 hPa 0 mm - 78 W/m² -
1788119175 26.11° C 73% 1015.1 hPa 0 mm - 92 W/m² -
1788118875 26.67° C 71% 1015.3 hPa 0 mm - 102 W/m² -
1788118575 26.67° C 72% 1015.1 hPa 0 mm - 103 W/m² -
1788118270 27.22° C 71% 1015.1 hPa 0 mm - 115 W/m² -
1788117965 27.78° C 71% 1015.3 hPa 0 mm - 164 W/m² -
1788117665 27.78° C 70% 1015.2 hPa 0 mm - 198 W/m² -
1788117360 27.78° C 68% 1015 hPa 0 mm - 247 W/m² -
1788117056 27.78° C 68% 1014.9 hPa 0 mm - 294 W/m² -
1788116751 28.33° C 66% 1015.1 hPa 0 mm - 216 W/m² -
1788116447 28.89° C 66% 1015 hPa 0 mm - 325 W/m² -

* Rain latest hour (hover to see other rain measurements)
** Current wind speed in m/s (hover to see current wind gust speed)